{"data":{"norad_id":68715,"epoch":"2026-09-19T11:44:20.375808Z","epoch_age_seconds":131791,"freshness":"FRESH","line1":"1 68715U 26081S   26262.48912472  .00017089  00000+0  51569-3 0  9992","line2":"2 68715  53.1560 210.4130 0001859  86.0254 274.0962 15.34403678 24465","mean_motion":15.34403678,"eccentricity":0.0001859,"inclination_deg":53.156,"raan_deg":210.413,"arg_perigee_deg":86.0254,"mean_anomaly_deg":274.0962,"bstar":0.00051569,"rev_number":2446,"period_min":93.847533126156,"perigee_km":461.4205982694,"apogee_km":463.96401860628,"semimajor_km":6840.8293084378,"source":"CELESTRAK","updated_at":"2026-09-20T09:00:43.961232Z"}}